Location: *
(33.8649°S, 62.1526°E)
Time: 10:04:20
(UTC+00:00)

Cosmos 44 Rocket - Pass Details

Date: 04 December 2021
Orbit: 648 x 741 km, 65.1° (Epoch: 23 January)

Event Time Altitude Azimuth Distance (km) Brightness Sun altitude
Exits shadow 17:40:36 40° 140° (SE) 968 4.1 -26.8°
Drops below altitude 10° 17:43:41 10° 148° (SSE) 2,089 6.1 -27.2°
Sets 17:46:01 0° 149° (SSE) 3,017 7.0 -27.4°
